Tracking 27086 objects as of 22-Mar-2023
HD Live streaming from Space Station
objects crossing your sky now

KEPLER-14 (STELLA)

Track KEPLER-14 (STELLA) now!
10-day predictions


NORAD ID: 47526
Int'l Code: 2021-006DS
Perigee: 511.2 km
Apogee: 523.6 km
Inclination: 97.4 °
Period: 94.8 minutes
Semi major axis: 6888 km
RCS: Unknown
Launch date: January 24, 2021
Source: Canada (CA)
Launch site: AIR FORCE EASTERN TEST RANGE (AFETR)
Your satellite tracking list
Your tracking list is empty




NASA's NSSDC Master Catalog

Two Line Element Set (TLE):
1 47526U 21006DS  23081.10289617  .00012748  00000-0  61947-3 0  9993
2 47526  97.3953 137.6468 0008973  61.4900 298.7236 15.18535548120234
Source of the keplerian elements: AFSPC